Location: Camps Bay
(33.9517°S, 18.3844°E)
Time: 15:46:05
(UTC+00:00)

Cosmos 783 Rocket - Pass Details

Date: 18 January 2020
Orbit: 758 x 780 km, 74.1° (Epoch: 25 February)

Event Time Altitude Azimuth Distance (km) Brightness Sun altitude
Rises 02:00:49 0° 198° (SSW) 3,296 8.1 -20.0°
Reaches altitude 10° 02:03:13 10° 198° (SSW) 2,360 7.3 -19.6°
Maximum altitude 02:08:36 85° 286° (WNW) 793 4.4 -18.8°
Drops below altitude 10° 02:13:54 10° 13° (NNE) 2,321 6.7 -18.0°
Enters shadow 02:14:53 - 13° (NNE) 2,703 7.1 -17.8°
